[[{"header":{"parameterUnit":"m.s-1","parameterCategory":2,"la1":30.2992,"la2":30.254,"lo1":-89.0895,"lo2":-89.0443,"dy":0.0025,"dx":0.0025,"nx":19,"ny":19,"refTime":"2026-03-24T03:00:00:Z","depth":"0","parameterNumber":2,"parameterNumberName":"U-component_of_CURRENTS"},"data":[0,0,0,0.2413,0.2415,0.2453,0.2453,0.2488,0.2488,0,0,0,0,0,0,0,0,0,0,0,0.2386,0.2386,0.2413,0.2415,0.2453,0.2453,0.2488,0.2488,0,0,0,0,0,0,0,0,0,0,0,0.2385,0.2386,0.2386,0.2415,0.2453,0.2453,0.2488,0.246,0,0,0,0,0,0,0,0,0,0,0.2423,0.2403,0.2386,0.2386,0.2415,0.2453,0.2453,0.2458,0.2461,0.2471,0,0.2475,0,0.2495,0.2492,0.2492,0,0,0,0.2403,0.24,0.2416,0.2386,0.2416,0.2453,0.2432,0.246,0.2464,0.2475,0.2476,0.2478,0.2496,0.2492,0.2492,0.2671,0.2672,0,0,0.2401,0.2388,0.2414,0.2419,0.2424,0.2431,0.2433,0.2462,0.2462,0.2476,0.2479,0.2496,0.2492,0.2493,0.2669,0.2671,0,0,0,0.2403,0.2386,0.2401,0.2416,0.2431,0.2432,0.2435,0.246,0.2466,0.248,0.2497,0.2493,0.2493,0.2667,0.267,0.2843,0,0,0,0.2401,0.2389,0.24,0.2392,0.2431,0.2449,0.2432,0.2464,0.2468,0.2496,0.2493,0.2494,0.2665,0.2669,0.2834,0.2879,0,0,0,0.2384,0.2387,0.2392,0.2392,0.2416,0.2449,0.2457,0.2465,0.2479,0.2492,0.2494,0.2664,0.2668,0.2827,0.2867,0.2954,0,0,0,0.2369,0.2381,0.2391,0.2415,0.2416,0.2494,0.2457,0.2464,0.247,0.2493,0.2666,0.2669,0.2824,0.2859,0.2947,0.2892,0.2921,0,0,0.2378,0.2381,0.2398,0.241,0.2496,0.2488,0.2615,0.2569,0.2546,0.2648,0.2653,0.2837,0.2866,0.2952,0.3111,0.3133,0,0,0,0.2399,0.2434,0.2453,0.2508,0.2547,0.2657,0.2643,0.2693,0.2781,0.2575,0.2866,0.2878,0.2927,0.288,0.29,0.2746,0.2687,0.2687,0.2686,0.2455,0.2484,0.2556,0.2624,0.2682,0.2772,0.2868,0.2949,0.2894,0.2978,0.3043,0.3253,0.3209,0.3222,0.3067,0.3085,0.3085,0.3086,0.3086,0.2573,0.2639,0.2685,0.2764,0.2857,0.2969,0.3137,0.3149,0.3338,0.3258,0.3297,0.3093,0.3252,0.3079,0.3098,0.3096,0.3094,0.3093,0.3092,0.2681,0.2709,0.2745,0.2858,0.2983,0.3081,0.3238,0.3365,0.3461,0.3548,0.3445,0.344,0.3262,0.3558,0.3559,0.356,0.356,0.3561,0.3561,0.2767,0.2803,0.2839,0.2953,0.2987,0.3102,0.3303,0.3412,0.3567,0.3614,0.3613,0.3325,0.3396,0.3347,0.3571,0.3569,0.3568,0.3567,0.3566,0.2892,0.2845,0.29,0.2917,0.2984,0.3006,0.322,0.3408,0.3579,0.3643,0.3502,0.3649,0.3573,0.3555,0.351,0.3762,0.3762,0.3762,0.3762,0.2912,0.2921,0.2874,0.2854,0.2889,0.2938,0.2988,0.3209,0.3421,0.3465,0.35,0.3369,0.3368,0.3271,0.3259,0.3204,0.3373,0.3372,0.3372,0.2943,0.2913,0.2848,0.2794,0.2792,0.28,0.2768,0.2889,0.3198,0.3341,0.331,0.3326,0.3114,0.3124,0.2948,0.2944,0.2843,0,0]},{"header":{"parameterUnit":"m.s-1","parameterCategory":2,"la1":30.2992,"la2":30.254,"lo1":-89.0895,"lo2":-89.0443,"dy":0.0025,"dx":0.0025,"nx":19,"ny":19,"refTime":"2026-03-24T03:00:00:Z","depth":"0","parameterNumber":3,"parameterNumberName":"V-component_of_CURRENTS"},"data":[0,0,0,0.0247,0.0247,0.0197,0.0197,0.0137,0.0137,0,0,0,0,0,0,0,0,0,0,0,0.0262,0.0262,0.0247,0.0247,0.0197,0.0197,0.0137,0.0137,0,0,0,0,0,0,0,0,0,0,0,0.0262,0.0262,0.0262,0.0246,0.0197,0.0197,0.0137,0.0171,0,0,0,0,0,0,0,0,0,0,0.0217,0.0243,0.0262,0.0262,0.0246,0.0197,0.0197,0.0172,0.0168,0.0165,0,0.0164,0,0.0156,0.0134,0.0134,0,0,0,0.0233,0.0246,0.0228,0.0262,0.0246,0.0198,0.0216,0.017,0.0166,0.016,0.0163,0.0161,0.0155,0.0134,0.0134,0.0259,0.0261,0,0,0.0236,0.0256,0.023,0.0226,0.0243,0.0217,0.0214,0.0167,0.0171,0.0163,0.016,0.0154,0.0134,0.0133,0.0258,0.026,0,0,0,0.0253,0.0258,0.024,0.0228,0.0223,0.0216,0.0213,0.0173,0.0165,0.0159,0.0154,0.0133,0.0133,0.0256,0.0258,0.0471,0,0,0,0.0254,0.0269,0.0241,0.0253,0.0224,0.0199,0.022,0.0168,0.0163,0.0154,0.0133,0.0133,0.0254,0.0257,0.0461,0.0556,0,0,0,0.0263,0.027,0.0265,0.0254,0.0238,0.02,0.0189,0.0167,0.016,0.0134,0.0132,0.0253,0.0256,0.0452,0.0541,0.0616,0,0,0,0.0282,0.0325,0.0266,0.0315,0.0239,0.0289,0.0189,0.0199,0.0188,0.0133,0.0254,0.0258,0.045,0.0532,0.0607,0.063,0.0672,0,0,0.0356,0.0334,0.0365,0.0313,0.04,0.0294,0.0409,0.033,0.0251,0.0262,0.0265,0.0464,0.054,0.0614,0.086,0.0895,0,0,0,0.0403,0.0435,0.0447,0.0478,0.0475,0.0532,0.0455,0.0447,0.0465,0.0264,0.0486,0.0527,0.0566,0.0563,0.0592,0.0407,0.0276,0.0276,0.0276,0.0543,0.0544,0.0634,0.0654,0.0692,0.0698,0.0744,0.0727,0.0614,0.0673,0.0717,0.0943,0.0946,0.0966,0.0778,0.0733,0.0734,0.0734,0.0735,0.0697,0.0757,0.0788,0.0874,0.0921,0.1005,0.1047,0.1003,0.1075,0.095,0.0977,0.0809,0.101,0.0797,0.0749,0.0746,0.0745,0.0743,0.0742,0.0814,0.0844,0.0889,0.1005,0.114,0.1178,0.1322,0.1319,0.127,0.1332,0.124,0.1235,0.1027,0.1317,0.1318,0.1319,0.132,0.132,0.1321,0.0893,0.0945,0.1017,0.1129,0.1213,0.1349,0.147,0.1529,0.1545,0.1482,0.148,0.1103,0.1118,0.1071,0.1333,0.1331,0.1329,0.1328,0.1327,0.0972,0.0972,0.1091,0.1166,0.1353,0.1513,0.1622,0.1749,0.1781,0.1791,0.1415,0.1539,0.1458,0.1432,0.1391,0.1721,0.1721,0.1721,0.1721,0.0983,0.1004,0.1128,0.1255,0.1437,0.1589,0.1807,0.1917,0.1754,0.1611,0.1474,0.1331,0.1323,0.1222,0.1201,0.115,0.1411,0.141,0.1409,0.0968,0.1031,0.1109,0.1258,0.1468,0.1674,0.188,0.2056,0.1742,0.1373,0.1223,0.1236,0.0995,0.0997,0.0801,0.0787,0.0687,0,0]}],[{"header":{"parameterUnit":"m.s-1","parameterCategory":2,"la1":30.2992,"la2":30.254,"lo1":-89.0895,"lo2":-89.0443,"dy":0.0025,"dx":0.0025,"nx":19,"ny":19,"refTime":"2026-03-24T03:00:00:Z","depth":"2","parameterNumber":2,"parameterNumberName":"U-component_of_CURRENTS"},"data":[0,0,0,0.2004,0.2005,0.2054,0.2054,0.2136,0.2136,0,0,0,0,0,0,0,0,0,0,0,0.2008,0.2009,0.2004,0.2005,0.2054,0.2054,0.2135,0.2136,0,0,0,0,0,0,0,0,0,0,0,0.2008,0.2009,0.201,0.2005,0.2054,0.2054,0.2135,0.2094,0,0,0,0,0,0,0,0,0,0,0.2044,0.202,0.2008,0.201,0.2005,0.2054,0.2054,0.2092,0.2097,0.2118,0,0.2143,0,0.2133,0.2142,0.2142,0,0,0,0.2007,0.2016,0.2051,0.201,0.2006,0.2054,0.2032,0.2094,0.21,0.2124,0.2144,0.2146,0.2134,0.2142,0.2143,0.2315,0.2316,0,0,0.2004,0.1992,0.2047,0.2055,0.2042,0.2031,0.2034,0.2098,0.2101,0.2144,0.2148,0.2135,0.2143,0.2144,0.2313,0.2315,0,0,0,0.1995,0.199,0.2023,0.2052,0.2055,0.2032,0.2036,0.2098,0.2116,0.2148,0.2136,0.2144,0.2145,0.2312,0.2314,0.244,0,0,0,0.1994,0.1985,0.2022,0.2012,0.2054,0.2067,0.2034,0.2112,0.2118,0.2136,0.2144,0.2145,0.2311,0.2313,0.2433,0.2502,0,0,0,0.2002,0.1984,0.2003,0.2012,0.2032,0.2066,0.2086,0.2113,0.211,0.2142,0.2146,0.231,0.2313,0.2428,0.2492,0.2672,0,0,0,0.1969,0.1997,0.2003,0.2027,0.2032,0.2095,0.2085,0.2121,0.2151,0.2144,0.2311,0.2314,0.2426,0.2486,0.2664,0.2461,0.2481,0,0,0.1984,0.1998,0.2013,0.202,0.2079,0.2087,0.2174,0.2201,0.2208,0.2288,0.2292,0.2436,0.2492,0.267,0.2632,0.2647,0,0,0,0.2004,0.2028,0.2042,0.208,0.2122,0.2214,0.2228,0.2278,0.2386,0.224,0.2461,0.2493,0.2602,0.2462,0.2476,0.2328,0.2327,0.2327,0.2327,0.2015,0.2047,0.2087,0.2149,0.2214,0.2306,0.2408,0.2494,0.2456,0.2546,0.2614,0.2859,0.2709,0.2718,0.2626,0.2627,0.2627,0.2627,0.2628,0.2066,0.2078,0.2158,0.2217,0.2326,0.2432,0.2613,0.2653,0.2869,0.2767,0.2867,0.2622,0.2739,0.2638,0.2636,0.2635,0.2634,0.2633,0.2632,0.2061,0.2066,0.2131,0.2242,0.24,0.253,0.2753,0.2893,0.3004,0.3122,0.301,0.3003,0.2963,0.3191,0.3193,0.3194,0.3195,0.3195,0.3196,0.2015,0.2075,0.2148,0.225,0.2374,0.2566,0.2866,0.2996,0.3134,0.3159,0.3157,0.3051,0.3032,0.2998,0.3213,0.321,0.3208,0.3206,0.3205,0.2053,0.2027,0.2158,0.2257,0.2496,0.259,0.2849,0.3015,0.3208,0.3212,0.3193,0.3188,0.3145,0.3128,0.3097,0.3326,0.3326,0.3326,0.3326,0.2074,0.2044,0.2247,0.2403,0.2561,0.265,0.2648,0.2606,0.2806,0.2853,0.2872,0.2628,0.2635,0.255,0.2546,0.2496,0.257,0.2569,0.2567,0.2191,0.2193,0.2355,0.2412,0.2608,0.2644,0.2416,0.207,0.2201,0.2532,0.2682,0.3287,0.297,0.2964,0.286,0.2844,0.2775,0,0]},{"header":{"parameterUnit":"m.s-1","parameterCategory":2,"la1":30.2992,"la2":30.254,"lo1":-89.0895,"lo2":-89.0443,"dy":0.0025,"dx":0.0025,"nx":19,"ny":19,"refTime":"2026-03-24T03:00:00:Z","depth":"2","parameterNumber":3,"parameterNumberName":"V-component_of_CURRENTS"},"data":[0,0,0,0.0034,0.0033,-0.0035,-0.0035,-0.0126,-0.0127,0,0,0,0,0,0,0,0,0,0,0,0.0059,0.0059,0.0034,0.0032,-0.0035,-0.0035,-0.0126,-0.0127,0,0,0,0,0,0,0,0,0,0,0,0.006,0.0059,0.0059,0.0032,-0.0035,-0.0035,-0.0126,-0.0076,0,0,0,0,0,0,0,0,0,0,-0.0011,0.002,0.0059,0.0059,0.0032,-0.0035,-0.0035,-0.0074,-0.008,-0.0093,0,-0.0095,0,-0.011,-0.0132,-0.0132,0,0,0,0.0021,0.0025,0.0005,0.0059,0.0032,-0.0035,-0.0008,-0.0077,-0.0083,-0.01,-0.0097,-0.01,-0.0111,-0.0132,-0.0133,-0.0117,-0.0117,0,0,0.0025,0.0045,0.0009,0.0002,0.0025,-0.0005,-0.001,-0.0081,-0.0082,-0.0097,-0.0102,-0.0113,-0.0133,-0.0134,-0.0118,-0.0117,0,0,0,0.0043,0.0048,0.0029,0.0006,-0.0005,-0.0007,-0.0012,-0.0079,-0.0085,-0.0103,-0.0114,-0.0133,-0.0134,-0.0119,-0.0118,-0.0026,0,0,0,0.0045,0.0059,0.0032,0.0042,-0.0003,-0.0041,-0.0008,-0.008,-0.0088,-0.0113,-0.0133,-0.0135,-0.012,-0.0118,-0.0031,-0.0002,0,0,0,0.0061,0.006,0.0056,0.0043,0.0018,-0.004,-0.0051,-0.0082,-0.0094,-0.0132,-0.0135,-0.012,-0.0119,-0.0034,-0.0008,0.0072,0,0,0,0.0078,0.0083,0.0056,0.0061,0.0019,0.0005,-0.0051,-0.0071,-0.0096,-0.0134,-0.012,-0.0118,-0.0036,-0.0012,0.0067,0.0154,0.0181,0,0,0.0094,0.0085,0.0088,0.0063,0.0068,0.0013,0.0014,-0.0045,-0.0073,-0.0101,-0.0101,-0.0029,-0.0009,0.0071,0.0256,0.0281,0,0,0,0.01,0.0106,0.0102,0.0099,0.0076,0.0076,0.0011,0.0,-0.0001,-0.0078,-0.0019,-0.0009,0.0039,0.0082,0.0102,-0.0109,-0.011,-0.011,-0.011,0.0138,0.0132,0.0148,0.0144,0.0146,0.0111,0.012,0.01,0.0042,0.0078,0.0075,0.0206,0.0254,0.0269,0.0089,0.009,0.009,0.009,0.009,0.0178,0.0182,0.0198,0.0213,0.0216,0.0218,0.0224,0.0205,0.0237,0.0173,0.0215,0.0186,0.0296,0.0098,0.0097,0.0096,0.0095,0.0094,0.0094,0.0188,0.0192,0.0213,0.0251,0.0286,0.028,0.0348,0.0319,0.0334,0.0371,0.0414,0.0412,0.026,0.0393,0.0394,0.0394,0.0395,0.0395,0.0395,0.0185,0.0211,0.0237,0.028,0.0308,0.0361,0.0404,0.0449,0.0505,0.0519,0.052,0.0308,0.0298,0.0278,0.0403,0.0402,0.0401,0.04,0.0399,0.019,0.0194,0.0242,0.0273,0.0371,0.0523,0.0562,0.0732,0.0736,0.081,0.0619,0.0611,0.059,0.0574,0.0561,0.0752,0.0752,0.0752,0.0752,0.0178,0.0186,0.0268,0.0345,0.045,0.0605,0.0911,0.0976,0.0923,0.0831,0.0826,0.077,0.0756,0.0738,0.0718,0.0704,0.0933,0.0933,0.0933,0.0187,0.0211,0.0277,0.0369,0.0506,0.0761,0.1125,0.1219,0.0992,0.0933,0.0785,0.0778,0.0682,0.0664,0.0619,0.0594,0.0564,0,0]}],[{"header":{"parameterUnit":"m.s-1","parameterCategory":2,"la1":30.2992,"la2":30.254,"lo1":-89.0895,"lo2":-89.0443,"dy":0.0025,"dx":0.0025,"nx":19,"ny":19,"refTime":"2026-03-24T03:00:00:Z","depth":"4","parameterNumber":2,"parameterNumberName":"U-component_of_CURRENTS"},"data":[0,0,0,0.1215,0.1218,0.1359,0.1359,0.1506,0.1507,0,0,0,0,0,0,0,0,0,0,0,0.1168,0.1169,0.1215,0.1218,0.1359,0.1359,0.1506,0.1507,0,0,0,0,0,0,0,0,0,0,0,0.1167,0.1168,0.117,0.1219,0.1359,0.1359,0.1505,0.1408,0,0,0,0,0,0,0,0,0,0,0.1276,0.1245,0.1168,0.117,0.122,0.1358,0.136,0.1404,0.1414,0.1432,0,0.1458,0,0.1484,0.1516,0.1516,0,0,0,0.1221,0.1237,0.1265,0.117,0.1221,0.1358,0.1296,0.141,0.1422,0.1445,0.146,0.1466,0.1487,0.1517,0.1517,0.1636,0.1636,0,0,0.1213,0.1203,0.1257,0.1273,0.1263,0.1292,0.1301,0.1417,0.1437,0.146,0.1469,0.1489,0.1517,0.1518,0.1635,0.1636,0,0,0,0.1189,0.1197,0.1224,0.1266,0.1294,0.1296,0.1306,0.1432,0.1438,0.1471,0.1491,0.1518,0.152,0.1635,0.1635,0.1687,0,0,0,0.1185,0.1183,0.122,0.1217,0.1292,0.1372,0.1317,0.143,0.1444,0.149,0.1518,0.1521,0.1635,0.1635,0.1685,0.1643,0,0,0,0.116,0.1181,0.1196,0.1216,0.1274,0.1371,0.1385,0.1434,0.1456,0.1516,0.1521,0.1634,0.1635,0.1683,0.1642,0.1692,0,0,0,0.1145,0.117,0.1196,0.1236,0.1273,0.1349,0.1384,0.146,0.1512,0.1519,0.1635,0.1635,0.1683,0.1641,0.169,0.1485,0,0,0,0.116,0.1173,0.1193,0.1219,0.1278,0.133,0.1412,0.1497,0.1527,0.1593,0.1597,0.1686,0.1642,0.1691,0.1531,0,0,0,0,0.1186,0.1203,0.1226,0.1272,0.1327,0.1395,0.1481,0.1529,0.1624,0.1562,0.1686,0.1655,0.1686,0.1563,0.1639,0.1639,0.1639,0.1639,0.1639,0.1185,0.1212,0.1242,0.1292,0.1353,0.1453,0.1517,0.1594,0.1643,0.1696,0.1702,0.1767,0.164,0.1739,0.1739,0.1739,0.174,0.174,0.174,0.1177,0.1157,0.1238,0.1278,0.1353,0.1438,0.1568,0.163,0.1737,0.1746,0.1777,0.1628,0.1745,0.1744,0.1743,0.1743,0.1742,0.1742,0.1742,0.1126,0.1103,0.1169,0.1221,0.1308,0.1421,0.1506,0.1623,0.1741,0.1781,0.1681,0.1789,0.1782,0.1834,0.1834,0.1834,0.1834,0.1834,0.1834,0.0994,0.1052,0.1077,0.1151,0.12,0.1296,0.1475,0.1557,0.1696,0.1665,0.1797,0.1798,0.1795,0.1786,0.1835,0.1835,0.1835,0.1835,0.1835,0.0834,0.0894,0.0917,0.0964,0.1071,0.1127,0.1332,0.1461,0.154,0.1559,0.1621,0.1631,0.1584,0.1586,0.1568,0.1555,0.1552,0.155,0,0.0699,0.0736,0.0778,0.0831,0.0884,0.1013,0.1095,0.1232,0.1369,0.1319,0.152,0.1582,0.1591,0.153,0.1528,0.1501,0,0,0,0.0564,0.0604,0.0609,0.0716,0.0783,0.0917,0.1104,0.1111,0.1361,0.138,0.1487,0.1504,0.169,0.1838,0.179,0.1787,0.177,0,0]},{"header":{"parameterUnit":"m.s-1","parameterCategory":2,"la1":30.2992,"la2":30.254,"lo1":-89.0895,"lo2":-89.0443,"dy":0.0025,"dx":0.0025,"nx":19,"ny":19,"refTime":"2026-03-24T03:00:00:Z","depth":"4","parameterNumber":3,"parameterNumberName":"V-component_of_CURRENTS"},"data":[0,0,0,0.0006,0.0005,-0.0057,-0.0057,-0.0148,-0.0148,0,0,0,0,0,0,0,0,0,0,0,0.0026,0.0026,0.0006,0.0005,-0.0057,-0.0057,-0.0148,-0.0148,0,0,0,0,0,0,0,0,0,0,0,0.0026,0.0026,0.0025,0.0005,-0.0057,-0.0057,-0.0147,-0.01,0,0,0,0,0,0,0,0,0,0,-0.004,-0.0014,0.0026,0.0025,0.0005,-0.0057,-0.0057,-0.0098,-0.0103,-0.0119,0,-0.0123,0,-0.0132,-0.0154,-0.0154,0,0,0,-0.0006,-0.0009,-0.0026,0.0025,0.0004,-0.0057,-0.0032,-0.0101,-0.0107,-0.0126,-0.0124,-0.0128,-0.0134,-0.0154,-0.0154,-0.0191,-0.0191,0,0,-0.0003,0.0012,-0.0022,-0.0029,-0.0005,-0.003,-0.0034,-0.0105,-0.0108,-0.0125,-0.013,-0.0135,-0.0155,-0.0155,-0.0191,-0.0191,0,0,0,0.0015,0.0014,-0.0001,-0.0026,-0.0033,-0.0031,-0.0036,-0.0105,-0.011,-0.0131,-0.0136,-0.0155,-0.0156,-0.0191,-0.0191,-0.015,0,0,0,0.0016,0.0025,0.0001,0.0008,-0.0032,-0.0068,-0.0035,-0.0105,-0.0113,-0.0136,-0.0155,-0.0157,-0.0192,-0.0191,-0.0152,-0.0104,0,0,0,0.0028,0.0026,0.0021,0.0009,-0.0013,-0.0067,-0.0076,-0.0107,-0.0116,-0.0154,-0.0157,-0.0192,-0.0191,-0.0153,-0.0108,-0.0062,0,0,0,0.0041,0.0033,0.0022,0.0012,-0.0012,-0.0038,-0.0076,-0.0104,-0.0132,-0.0155,-0.0192,-0.0191,-0.0153,-0.011,-0.0065,-0.0,0,0,0,0.0037,0.0033,0.0027,0.0016,0.0007,-0.0031,-0.0048,-0.0101,-0.0131,-0.0172,-0.0173,-0.0151,-0.0108,-0.0063,0.0024,0,0,0,0,0.003,0.0031,0.0024,0.0018,-0.0005,-0.0009,-0.0066,-0.009,-0.0125,-0.0144,-0.0154,-0.0127,-0.01,-0.0071,-0.0189,-0.0189,-0.0189,-0.0189,-0.0189,0.0039,0.0036,0.0045,0.0041,0.0032,-0.0004,-0.0019,-0.0058,-0.0106,-0.011,-0.0097,-0.0034,-0.0004,-0.0117,-0.0116,-0.0116,-0.0116,-0.0116,-0.0116,0.006,0.0083,0.0084,0.0094,0.0092,0.0082,0.0037,0.0001,-0.0017,-0.0062,-0.0039,-0.0034,-0.0112,-0.0113,-0.0113,-0.0114,-0.0114,-0.0114,-0.0114,0.008,0.0103,0.0104,0.0152,0.0184,0.0164,0.0207,0.0139,0.0055,0.0063,0.0106,0.001,0.0012,0.0078,0.0078,0.0079,0.0079,0.0079,0.0079,0.0124,0.0133,0.0194,0.0233,0.0289,0.0337,0.0322,0.0309,0.0221,0.0188,0.0095,0.0032,0.0025,0.0024,0.0086,0.0085,0.0084,0.0083,0.0083,0.0195,0.0206,0.0292,0.0355,0.0485,0.0514,0.0505,0.0451,0.0448,0.04,0.0247,0.0237,0.0238,0.0228,0.0232,0.0359,0.036,0.0362,0,0.0267,0.0271,0.0406,0.0523,0.063,0.0634,0.0656,0.061,0.0477,0.0464,0.0424,0.0253,0.0244,0.0245,0.0237,0.0245,0,0,0,0.0357,0.0373,0.0478,0.0566,0.0695,0.0689,0.0656,0.0632,0.0497,0.0497,0.039,0.0382,0.0251,0.0104,0.0084,0.0076,0.0073,0,0]}]]